If you wish to contribute or participate in the discussions about articles you are invited to join SKYbrary as a registered user

 Actions

Itaituba Airport

From SKYbrary Wiki

SBIH
Airport
ICAO: SBIH – IATA: ITB
Summary
Name Itaituba Airport
Region South America and Caribbean
Territory Brazil BR.gif
Location Itaituba, Para
Serving Itaituba
Elevation 32.918 m
108 ft32.918 m
Coordinates 4° 14' 31.99" S, 56° 0' 2.99" W
Runways
Designator Length Width Surface ROPS
5/23 1605 m5,265.748 ft
30 m98.425 ft
ASP /


METAR
Observation SBIH 231000Z 28003KT 4000 BR BKN005 24/24 Q1013
Station Itaituba
Date/Time 23 September 2019 10:00:00
Wind direction 280°
Wind speed 03 kts
Lowest cloud amount broken clouds
Temperature 24°C
Dew point 24°C
Humidity 100%
QNH 1013 hPa
Weather condition n/a

Itaituba Airport is the airport serving Itaituba, Brazil.

Climatology

Tropical monsoon climate (Köppen climate classification Am)

Maps

Terrain

Loading map...

Airport Layout

Loading map...


Accidents & Serious Incidents at or in vicinity of SBIH

None on SKYbrary